Regional Weather Roundup
Issued by NWS Boston, MA

Current Version | Previous Version | Text Only | Print | Product List | Glossary Off
Versions: 1 2 3 4 5 6 7 8 9 10 11 12 13 14 15 16 17 18 19 20 21 22 23 24 25 26 27 28 29 30 31 32 33 34 35 36 37 38 39 40 41 42 43 44 45 46 47 48 49 50
000 ASUS41 KBOX 200710 RWRBOX REGIONAL WEATHER ROUNDUP NATIONAL WEATHER SERVICE BOSTON/NORTON MA 300 AM EDT WED MAR 20 2019 NOTE: "FAIR" INDICATES FEW OR NO CLOUDS BELOW 12,000 FEET WITH NO SIGNIFICANT WEATHER AND/OR OBSTRUCTIONS TO VISIBILITY. MAZALL-200800- EASTERN MASSACHUSETTS CITY SKY/WX TMP DP RH WIND PRES REMARKS BOSTON FAIR 35 15 44 W6 30.41S WCI 30 BEVERLY FAIR 24 20 84 CALM 30.39F LAWRENCE FAIR 24 16 71 CALM 30.41F BEDFORD FAIR 25 16 68 CALM 30.39F BLUE HILL N/A 28 13 53 NW7 30.36F WCI 21 NORWOOD FAIR 24 18 77 CALM 30.41S MARSHFIELD FAIR 25 21 86 W5 30.41S WCI 19 PLYMOUTH FAIR 23 18 81 CALM 30.41S TAUNTON FAIR 22 18 85 CALM 30.40F NEW BEDFORD FAIR 25 21 85 CALM 30.41S $$ MAZALL-200800- CAPE COD AND THE ISLANDS CITY SKY/WX TMP DP RH WIND PRES REMARKS FALMOUTH FAIR 19 16 86 CALM 30.41S HYANNIS FAIR 24 19 81 CALM 30.39S CHATHAM FAIR 30 19 63 NW5 30.41F WCI 25 PROVINCETOWN FAIR 22 19 89 SW3 30.41S NANTUCKET FAIR 33 28 81 NW6 30.41S WCI 28 MARTHAS VNYRD FAIR N/A N/A N/A CALM 30.41S $$ MAZALL-200800- CENTRAL AND WESTERN MASSACHUSETTS CITY SKY/WX TMP DP RH WIND PRES REMARKS WORCESTER FAIR 28 15 58 W7 30.36S WCI 21 FITCHBURG FAIR 25 17 72 CALM 30.40F ORANGE FAIR 22 18 85 CALM 30.39F SPRINGFIELD MOCLDY 23 18 80 CALM 30.39S WESTFIELD CLOUDY 24 19 81 CALM 30.39F NORTH ADAMS FAIR 22 20 92 CALM 30.38F PITTSFIELD CLOUDY 29 20 69 CALM 30.34F $$ RIZALL-200800- RHODE ISLAND CITY SKY/WX TMP DP RH WIND PRES REMARKS PROVIDENCE FAIR 29 18 63 SW3 30.41F NEWPORT FAIR 31 22 69 CALM 30.41R BLOCK ISLAND FAIR 31 29 92 W6 30.43S WCI 25 SMITHFIELD FAIR 30 16 56 NW3 30.39F WESTERLY MOCLDY 28 25 88 CALM 30.43S $$ CTZALL-200800- CONNECTICUT CITY SKY/WX TMP DP RH WIND PRES REMARKS BRADLEY INTL MOCLDY 29 21 72 W3 30.41S HARTFORD CLOUDY 29 22 75 S3 30.42F BRIDGEPORT FAIR 31 23 72 N5 30.42S WCI 26 DANBURY CLOUDY 25 19 78 CALM 30.40F GROTON CLOUDY 26 23 88 NE3 30.42F NEW HAVEN MOCLDY 30 22 72 CALM 30.42S CHESTER FAIR 30 18 59 CALM 30.40F MERIDEN CLOUDY 27 22 81 CALM 30.42F WILLIMANTIC FAIR 25 18 74 CALM 30.43R OXFORD CLOUDY 32 20 61 E3 30.39F $$ MEZ002-015-021-024-NHZ003-005-008-011-012-014-VTZ005-008-200800- NORTHERN NEW ENGLAND CITY SKY/WX TMP DP RH WIND PRES REMARKS PORTLAND ME FAIR 23 12 62 CALM 30.41S BANGOR ME FAIR 18 7 62 CALM 30.38F CONCORD NH FAIR 19 14 81 CALM 30.40S MANCHESTER NH FAIR 24 15 68 N3 30.39S NASHUA NH FAIR 22 18 85 CALM 30.40F PORTSMOUTH NH CLEAR 25 13 61 CALM 30.39F JAFFREY NH FAIR 21 18 88 CALM 30.35F KEENE NH FAIR 18 16 92 CALM 30.40S BURLINGTON VT FAIR 22 13 68 CALM 30.36S MT. WASHINGTON CLEAR 1 0 92 W38 N/A WCI -26 $$ NYZ052-076-200800- EASTERN NEW YORK CITY SKY/WX TMP DP RH WIND PRES REMARKS ALBANY MOCLDY 30 20 66 CALM 30.40S NEW YORK CITY FAIR 39 27 62 S6 30.40F $$ ANZALL-200800- MARINE OBSERVATIONS STATION/POSITION TIME TEMP WIND PRES VSBY WAVE AIR SEA DIR/SP/G HT/PER (UTC) (F) (DEG/KT/KT) (MB) (MI) (FT/S) BOSTON BUOY 0650 36 38 240/ 8/ 10 1029.3S 1 BUZZARDS BAY 0600 290/ 7/ 7 1031.1R NANTUCKET SOUND 0650 37 38 320/ 10/ 12 1029.8S 0 MASS BAY-STELLWA 0604 37 38 240/ 4/ 6 1028.8R 1 7/8 1 ISLE OF SHOALS 0600 36 50/ 4/ 4 1029.4R S OF BLOCK IS 0630 41 N/A 2/ 4 $$ ......................KEY......................... SKY/WX - SKY CONDITION/PRESENT WEATHER TMP - TEMPERATURE IN FAHRENHEIT DWPT - DEWPOINT IN FAHRENHEIT RH - RELATIVE HUMIDITY IN PERCENT WIND - DIRECTION AND SPEED IN MPH PRES - MEAN SEA LEVEL PRESSURE IN INCHES OF HG WCI - WIND CHILL INDEX VSB - VISIBILITY IN MILES HX - HEAT INDEX TC - TEMPERATURE IN CELSIUS VRB - VARIABLE WIND DIRECTION N/A - NOT AVAILABLE

USA.gov is the U.S. government's official web portal to all federal, state and local government web resources and services.